• In Hungary
  • List of Countries
  • For 7 days
  • Water Temperature
  • Satellite Maps
  • Weather Map
  • News
  • Weather Widgets
  • user-avatar
    Login

    Hourly Weather Saratenii Vechi

    Today, 24 October, Wednesday

    Time Temperature Precipitation Wind Pressure Humidity
    00:00 +11°C° 0.4 mm 6 mps 749 mmHg 64%
    01:00 +11°C° 0.4 mm 7 mps 748 mmHg 65%
    02:00 +10°C° 0.4 mm 7 mps 747 mmHg 67%
    03:00 +10°C° 0.2 mm 7 mps 746 mmHg 64%
    04:00 +10°C° 0.2 mm 7 mps 745 mmHg 62%
    05:00 +10°C° 0.2 mm 7 mps 744 mmHg 60%
    06:00 +10°C° 0.2 mm 7 mps 744 mmHg 60%
    07:00 +10°C° 0.2 mm 6 mps 743 mmHg 60%
    08:00 +10°C° 0.2 mm 6 mps 742 mmHg 60%
    09:00 +11°C° 0.2 mm 7 mps 742 mmHg 59%
    10:00 +11°C° 0.2 mm 7 mps 741 mmHg 58%
    11:00 +11°C° 0.2 mm 7 mps 741 mmHg 57%
    12:00 +11°C° 0.3 mm 7 mps 741 mmHg 54%
    13:00 +11°C° 0.3 mm 8 mps 741 mmHg 51%
    14:00 +11°C° 0.3 mm 8 mps 740 mmHg 47%
    15:00 +10°C° 0.1 mm 8 mps 741 mmHg 49%
    16:00 +9°C° 0.1 mm 8 mps 741 mmHg 51%
    17:00 +9°C° 0.1 mm 7 mps 742 mmHg 53%
    18:00 +7°C° 0 mm 8 mps 742 mmHg 55%
    19:00 +6°C° 0 mm 8 mps 743 mmHg 56%
    20:00 +5°C° 0 mm 8 mps 744 mmHg 58%
    21:00 +5°C° 0 mm 8 mps 744 mmHg 59%
    22:00 +5°C° 0 mm 9 mps 744 mmHg 59%
    23:00 +5°C° 0 mm 9 mps 745 mmHg 60%

    Tomorrow, 25 October, Thursday

    Time Temperature Precipitation Wind Pressure Humidity
    00:00 +5°C° 0.2 mm 9 mps 745 mmHg 61%
    01:00 +5°C° 0.2 mm 10 mps 745 mmHg 62%
    02:00 +5°C° 0.2 mm 10 mps 745 mmHg 64%
    03:00 +5°C° 0.1 mm 10 mps 746 mmHg 63%
    04:00 +5°C° 0.1 mm 10 mps 746 mmHg 62%
    05:00 +6°C° 0.1 mm 10 mps 746 mmHg 61%
    06:00 +6°C° 0.1 mm 11 mps 747 mmHg 61%
    07:00 +4°C° 0.1 mm 11 mps 748 mmHg 60%
    08:00 +4°C° 0.1 mm 11 mps 749 mmHg 60%
    09:00 +6°C° 0 mm 10 mps 750 mmHg 57%
    10:00 +6°C° 0 mm 10 mps 750 mmHg 55%
    11:00 +6°C° 0 mm 10 mps 751 mmHg 52%
    12:00 +7°C° 0 mm 10 mps 751 mmHg 50%
    13:00 +7°C° 0 mm 9 mps 751 mmHg 48%
    14:00 +8°C° 0 mm 9 mps 751 mmHg 46%
    15:00 +8°C° 0 mm 7 mps 751 mmHg 47%
    16:00 +8°C° 0 mm 5 mps 751 mmHg 47%
    17:00 +8°C° 0 mm 3 mps 751 mmHg 48%
    18:00 +7°C° 0.1 mm 4 mps 751 mmHg 49%
    19:00 +7°C° 0.1 mm 4 mps 751 mmHg 51%
    20:00 +7°C° 0.1 mm 4 mps 751 mmHg 52%
    21:00 +7°C° 0.2 mm 5 mps 750 mmHg 54%
    22:00 +7°C° 0.2 mm 5 mps 750 mmHg 56%
    23:00 +7°C° 0.2 mm 6 mps 749 mmHg 58%

    Day after tomorrow, 26 October, Friday

    Time Temperature Precipitation Wind Pressure Humidity
    00:00 +8°C° 0.3 mm 6 mps 749 mmHg 61%
    01:00 +8°C° 0.3 mm 6 mps 749 mmHg 63%
    02:00 +9°C° 0.3 mm 6 mps 749 mmHg 66%
    03:00 +8°C° 0 mm 6 mps 750 mmHg 69%
    04:00 +8°C° 0 mm 6 mps 750 mmHg 71%
    05:00 +7°C° 0 mm 5 mps 751 mmHg 74%
    06:00 +7°C° 0 mm 5 mps 752 mmHg 73%
    07:00 +7°C° 0 mm 5 mps 752 mmHg 73%
    08:00 +7°C° 0 mm 5 mps 753 mmHg 72%
    09:00 +8°C° 0 mm 6 mps 753 mmHg 66%
    10:00 +9°C° 0 mm 6 mps 754 mmHg 60%
    11:00 +11°C° 0 mm 7 mps 754 mmHg 55%
    12:00 +11°C° 0 mm 6 mps 754 mmHg 53%
    13:00 +11°C° 0 mm 6 mps 755 mmHg 51%
    14:00 +11°C° 0 mm 6 mps 755 mmHg 50%
    15:00 +12°C° 0 mm 4 mps 755 mmHg 51%
    16:00 +12°C° 0 mm 2 mps 755 mmHg 53%
    17:00 +12°C° 0 mm 1 mps 755 mmHg 55%
    18:00 +12°C° 0 mm 1 mps 755 mmHg 56%
    19:00 +11°C° 0 mm 1 mps 756 mmHg 57%
    20:00 +10°C° 0 mm 2 mps 756 mmHg 57%
    21:00 +10°C° 0 mm 2 mps 756 mmHg 59%
    22:00 +10°C° 0 mm 3 mps 756 mmHg 61%
    23:00 +9°C° 0 mm 3 mps 756 mmHg 63%

    27 October, Saturday

    Time Temperature Precipitation Wind Pressure Humidity
    00:00 +9°C° 0 mm 3 mps 756 mmHg 67%
    01:00 +9°C° 0 mm 3 mps 755 mmHg 70%
    02:00 +9°C° 0 mm 3 mps 755 mmHg 74%
    03:00 +9°C° 0 mm 3 mps 755 mmHg 75%
    04:00 +9°C° 0 mm 3 mps 755 mmHg 75%
    05:00 +9°C° 0 mm 3 mps 754 mmHg 75%
    06:00 +9°C° 0 mm 3 mps 754 mmHg 73%
    07:00 +10°C° 0 mm 3 mps 754 mmHg 70%
    08:00 +10°C° 0 mm 3 mps 754 mmHg 67%
    09:00 +12°C° 0.1 mm 3 mps 754 mmHg 64%
    10:00 +14°C° 0.1 mm 3 mps 753 mmHg 61%
    11:00 +16°C° 0.1 mm 3 mps 753 mmHg 57%
    12:00 +17°C° 0.3 mm 3 mps 753 mmHg 56%
    13:00 +18°C° 0.3 mm 3 mps 753 mmHg 55%
    14:00 +19°C° 0.3 mm 3 mps 753 mmHg 54%
    15:00 +18°C° 0 mm 2 mps 753 mmHg 57%
    16:00 +18°C° 0 mm 1 mps 753 mmHg 60%
    17:00 +16°C° 0 mm 1 mps 753 mmHg 63%
    18:00 +16°C° 0 mm 1 mps 753 mmHg 67%
    19:00 +15°C° 0 mm 1 mps 754 mmHg 70%
    20:00 +14°C° 0 mm 2 mps 754 mmHg 73%
    21:00 +14°C° 0 mm 2 mps 755 mmHg 76%
    22:00 +13°C° 0 mm 2 mps 755 mmHg 79%
    23:00 +13°C° 0 mm 2 mps 756 mmHg 82%

    28 October, Sunday

    Time Temperature Precipitation Wind Pressure Humidity
    00:00 +12°C° 0 mm 2 mps 756 mmHg 83%
    01:00 +12°C° 0 mm 2 mps 756 mmHg 84%
    02:00 +10°C° 0 mm 2 mps 756 mmHg 84%
    03:00 +10°C° 0 mm 2 mps 756 mmHg 85%
    04:00 +10°C° 0 mm 2 mps 756 mmHg 86%
    05:00 +10°C° 0 mm 2 mps 757 mmHg 87%
    06:00 +10°C° 0 mm 2 mps 757 mmHg 85%
    07:00 +10°C° 0 mm 2 mps 757 mmHg 84%
    08:00 +12°C° 0 mm 2 mps 758 mmHg 83%
    09:00 +13°C° 0 mm 2 mps 758 mmHg 76%
    10:00 +15°C° 0 mm 2 mps 758 mmHg 69%
    11:00 +17°C° 0 mm 2 mps 758 mmHg 63%
    12:00 +18°C° 0 mm 2 mps 758 mmHg 58%
    13:00 +20°C° 0 mm 2 mps 757 mmHg 54%
    14:00 +21°C° 0 mm 2 mps 757 mmHg 49%
    15:00 +20°C° 0 mm 2 mps 757 mmHg 52%
    16:00 +20°C° 0 mm 2 mps 757 mmHg 54%
    17:00 +19°C° 0 mm 2 mps 757 mmHg 57%
    18:00 +18°C° 0 mm 2 mps 757 mmHg 58%
    19:00 +18°C° 0 mm 3 mps 757 mmHg 60%
    20:00 +17°C° 0 mm 3 mps 757 mmHg 62%
    21:00 +17°C° 0 mm 3 mps 757 mmHg 67%
    22:00 +16°C° 0 mm 3 mps 757 mmHg 72%
    23:00 +16°C° 0 mm 3 mps 757 mmHg 77%

    29 October, Monday

    Time Temperature Precipitation Wind Pressure Humidity
    00:00 +14°C° 0 mm 3 mps 757 mmHg 81%
    01:00 +14°C° 0 mm 3 mps 757 mmHg 86%
    02:00 +14°C° 0 mm 3 mps 756 mmHg 90%
    03:00 +14°C° 0 mm 3 mps 756 mmHg 91%
    04:00 +14°C° 0 mm 4 mps 756 mmHg 92%
    05:00 +13°C° 0 mm 4 mps 756 mmHg 93%
    06:00 +14°C° 0 mm 4 mps 756 mmHg 91%
    07:00 +14°C° 0 mm 4 mps 756 mmHg 88%
    08:00 +14°C° 0 mm 5 mps 756 mmHg 86%
    09:00 +16°C° 0 mm 6 mps 755 mmHg 74%
    10:00 +18°C° 0 mm 7 mps 755 mmHg 63%
    11:00 +20°C° 0 mm 7 mps 755 mmHg 52%
    12:00 +21°C° 0 mm 8 mps 755 mmHg 47%
    13:00 +22°C° 0 mm 8 mps 754 mmHg 41%
    14:00 +23°C° 0 mm 8 mps 754 mmHg 36%
    15:00 +22°C° 0 mm 7 mps 754 mmHg 37%
    16:00 +21°C° 0 mm 6 mps 753 mmHg 37%
    17:00 +21°C° 0 mm 6 mps 753 mmHg 38%
    18:00 +20°C° 0 mm 6 mps 753 mmHg 41%
    19:00 +19°C° 0 mm 6 mps 753 mmHg 43%
    20:00 +19°C° 0 mm 6 mps 753 mmHg 46%
    21:00 +17°C° 0 mm 6 mps 753 mmHg 49%
    22:00 +17°C° 0 mm 6 mps 754 mmHg 53%
    23:00 +16°C° 0 mm 6 mps 754 mmHg 57%

    30 October, Tuesday

    Time Temperature Precipitation Wind Pressure Humidity
    00:00 +16°C° 0 mm 5 mps 754 mmHg 60%
    01:00 +17°C° 0 mm 4 mps 754 mmHg 63%
    02:00 +15°C° 0 mm 4 mps 754 mmHg 67%
    03:00 +16°C° 0 mm 3 mps 754 mmHg 70%
    04:00 +14°C° 0 mm 3 mps 754 mmHg 72%
    05:00 +15°C° 0 mm 2 mps 754 mmHg 75%
    06:00 +14°C° 0 mm 3 mps 754 mmHg 75%
    07:00 +14°C° 0 mm 3 mps 755 mmHg 76%
    08:00 +14°C° 0 mm 3 mps 755 mmHg 76%
    09:00 +17°C° 0 mm 3 mps 755 mmHg 69%
    10:00 +19°C° 0 mm 4 mps 755 mmHg 62%
    11:00 +21°C° 0 mm 4 mps 754 mmHg 56%
    12:00 +22°C° 0 mm 5 mps 754 mmHg 54%
    13:00 +23°C° 0 mm 5 mps 754 mmHg 52%
    14:00 +24°C° 0 mm 6 mps 754 mmHg 50%
    15:00 +23°C° 0 mm 6 mps 753 mmHg 53%
    16:00 +22°C° 0 mm 5 mps 753 mmHg 56%
    17:00 +21°C° 0 mm 5 mps 753 mmHg 58%
    18:00 +21°C° 0 mm 6 mps 753 mmHg 58%
    19:00 +20°C° 0 mm 6 mps 753 mmHg 58%
    20:00 +20°C° 0 mm 7 mps 754 mmHg 58%
    21:00 +20°C° 0 mm 7 mps 754 mmHg 55%
    22:00 +18°C° 0 mm 7 mps 754 mmHg 53%
    23:00 +18°C° 0 mm 7 mps 753 mmHg 51%
    Show more